Location: Unspecified
(38.0989°N, 0.6729°W)
Time: 19:11:27
(UTC+01:00)

N. Korean satellite - Visible Passes

Search period start: 24 January 2022 00:00
Search period end: 03 February 2022 00:00
Orbit: 447 x 491 km, 97.3° (Epoch: 23 January)

Date Brightness Start Highest point End Pass type
(mag) Time Alt. Az. Time Alt. Az. Time Alt. Az.
24 Jan 8.4 06:14:34 10° NNE 06:22:20 - S 06:15:57 22° NNE visible
25 Jan 9.1 05:45:42 10° NNE 05:52:52 - SSE 05:46:52 18° NE visible
25 Jan 8.5 07:19:52 10° NW 07:20:55 13° NW 07:20:55 13° NW visible
26 Jan 9.9 05:17:42 10° ENE 05:23:21 - SE 05:17:47 10° ENE visible
26 Jan 7.7 06:49:36 10° N 06:57:24 - SW 06:51:50 26° NW visible
27 Jan 7.1 06:20:07 10° N 06:27:52 - SSW 06:22:46 46° N visible
28 Jan 8.2 05:51:06 10° NNE 05:58:18 - S 05:53:42 33° ENE visible
28 Jan 8.5 07:25:49 10° NW 07:27:15 12° WNW 07:27:47 12° WNW visible
29 Jan 9.5 05:22:49 10° NE 05:28:42 - SSE 05:24:40 16° E visible
29 Jan 7.5 06:55:11 10° NNW 06:58:17 26° WNW 06:58:45 26° W visible
30 Jan 6.4 06:25:33 10° N 06:29:09 67° WNW 06:29:45 55° SW visible
31 Jan 7.6 05:56:24 10° NNE 05:59:54 45° E 06:03:22 10° S visible
31 Jan 8.6 07:32:03 10° WNW 07:32:34 10° WNW 07:33:06 10° WNW visible
01 Feb 9.3 05:27:53 10° NE 05:30:31 19° E 05:32:13 14° SE visible
01 Feb 7.7 07:00:40 10° NNW 07:03:34 23° WNW 07:06:25 10° WSW visible
02 Feb 6.6 06:30:53 10° N 06:34:26 55° WNW 06:37:56 10° SSW visible
